Location: Augsburg
(48.3836°N, 10.8929°E)
Time: 15:58:00
(UTC+01:00)

ISS - Visible Passes

Search period start: 23 November 2017 00:00
Search period end: 03 December 2017 00:00
Orbit: 402 x 407 km, 51.6° (Epoch: 24 November)

Date Brightness Start Highest point End Pass type
(mag) Time Alt. Az. Time Alt. Az. Time Alt. Az.
27 Nov -0.9 19:07:22 10° SW 19:07:51 13° SSW 19:07:51 13° SSW visible
28 Nov -2.2 18:15:35 10° SSW 18:17:50 22° SSE 18:17:50 22° SSE visible
29 Nov -1.6 17:24:18 10° S 17:26:04 14° SE 17:27:45 10° ESE visible
29 Nov -1.8 18:58:47 10° WSW 19:00:25 26° SW 19:00:25 26° SW visible
30 Nov -3.3 18:06:36 10° SW 18:09:44 43° SSE 18:10:15 39° ESE visible
01 Dec -2.4 17:14:39 10° SSW 17:17:28 27° SE 17:20:01 12° E visible
01 Dec -2.4 18:50:27 10° WSW 18:52:40 39° W 18:52:40 39° W visible
02 Dec -3.9 17:58:02 10° WSW 18:01:19 79° SSE 18:02:23 39° ENE visible
02 Dec -0.3 19:34:46 10° W 19:35:02 12° WNW 19:35:02 12° WNW visible
